EZY68GL EGGP-EGNS

Flight info

Callsign EZY68GL
Flight time 0h 19m
Altitude 14000
Route WAL M146 LUSOD DCT IOM
Aircraft A320/M-SDE3FGHIRWY/LB1

Departure

Time 2026-05-09 10:12
Airport Liverpool John Lennon Airport (EGGP)

Arrival

Time 2026-05-09 10:32
Airport Isle of Man Airport (EGNS)
Time Latitude Longitude Altitude Speed Heading
2026-05-09 09:50 53.33665 -2.85513 86 ft 0 kts 356°
2026-05-09 10:03 53.33657 -2.85512 86 ft 4 kts 358°
2026-05-09 10:04 53.33635 -2.85511 87 ft 4 kts
2026-05-09 10:04 53.33615 -2.85523 91 ft 4 kts 70°
2026-05-09 10:04 53.33611 -2.85566 90 ft 4 kts 87°
2026-05-09 10:04 53.33610 -2.85607 89 ft 2 kts 86°
2026-05-09 10:05 53.33609 -2.85611 89 ft 0 kts 86°
2026-05-09 10:09 53.33612 -2.85561 89 ft 17 kts 86°
2026-05-09 10:09 53.33533 -2.85496 86 ft 13 kts 162°
2026-05-09 10:09 53.33515 -2.85367 85 ft 15 kts 84°
2026-05-09 10:10 53.33525 -2.85077 88 ft 29 kts 86°
2026-05-09 10:10 53.33543 -2.84735 82 ft 31 kts 85°
2026-05-09 10:10 53.33559 -2.84357 70 ft 34 kts 85°
2026-05-09 10:10 53.33577 -2.83963 71 ft 32 kts 87°
2026-05-09 10:11 53.33598 -2.83583 64 ft 33 kts 84°
2026-05-09 10:11 53.33564 -2.83326 68 ft 21 kts 141°
2026-05-09 10:11 53.33443 -2.83326 80 ft 16 kts 238°
2026-05-09 10:11 53.33427 -2.83538 79 ft 36 kts 265°
2026-05-09 10:12 53.33391 -2.84397 79 ft 108 kts 266°
2026-05-09 10:12 53.33319 -2.85977 122 ft 157 kts 264°
2026-05-09 10:12 53.33208 -2.87739 857 ft 149 kts 261°
2026-05-09 10:12 53.33074 -2.89488 1467 ft 155 kts 264°
2026-05-09 10:13 53.32990 -2.91409 1838 ft 177 kts 272°
2026-05-09 10:13 53.33293 -2.93521 2180 ft 199 kts 295°
2026-05-09 10:13 53.33958 -2.95731 2534 ft 225 kts 297°
2026-05-09 10:13 53.34699 -2.98191 2992 ft 249 kts 297°
2026-05-09 10:14 53.35494 -3.00851 3692 ft 261 kts 296°
2026-05-09 10:14 53.36299 -3.03571 3978 ft 265 kts 296°
2026-05-09 10:14 53.37111 -3.06331 4003 ft 264 kts 296°
2026-05-09 10:14 53.37917 -3.09081 4009 ft 263 kts 296°
2026-05-09 10:15 53.38726 -3.11836 4008 ft 263 kts 297°
2026-05-09 10:15 53.39736 -3.14371 4034 ft 264 kts 315°
2026-05-09 10:15 53.41057 -3.16572 4848 ft 268 kts 315°
2026-05-09 10:15 53.42370 -3.18799 5875 ft 269 kts 314°
2026-05-09 10:16 53.43686 -3.21050 6836 ft 272 kts 313°
2026-05-09 10:16 53.45019 -3.23335 7682 ft 276 kts 313°
2026-05-09 10:16 53.46372 -3.25654 8547 ft 281 kts 313°
2026-05-09 10:16 53.47751 -3.28017 9404 ft 285 kts 313°
2026-05-09 10:17 53.49149 -3.30409 10241 ft 290 kts 313°
2026-05-09 10:17 53.50609 -3.32906 10652 ft 311 kts 313°
2026-05-09 10:17 53.52180 -3.35602 10910 ft 334 kts 313°
2026-05-09 10:17 53.53842 -3.38456 11404 ft 347 kts 313°
2026-05-09 10:18 53.55544 -3.41381 12145 ft 351 kts 313°
2026-05-09 10:18 53.57254 -3.44330 12929 ft 354 kts 311°
2026-05-09 10:18 53.58794 -3.47561 13705 ft 355 kts 304°
2026-05-09 10:18 53.60231 -3.50958 14076 ft 357 kts 303°
2026-05-09 10:19 53.61673 -3.54383 14172 ft 365 kts 303°
2026-05-09 10:19 53.63176 -3.57969 14187 ft 382 kts 303°
2026-05-09 10:19 53.64197 -3.60408 14190 ft 385 kts 303°
2026-05-09 10:19 53.65743 -3.64099 14185 ft 383 kts 303°
2026-05-09 10:20 53.67258 -3.67713 13861 ft 372 kts 303°
2026-05-09 10:20 53.68743 -3.71258 13295 ft 368 kts 303°
2026-05-09 10:20 53.70686 -3.75897 12555 ft 363 kts 303°
2026-05-09 10:20 53.71664 -3.78238 12182 ft 360 kts 302°
2026-05-09 10:21 53.73557 -3.82786 11445 ft 355 kts 302°
2026-05-09 10:21 53.74512 -3.85083 11069 ft 352 kts 303°
2026-05-09 10:21 53.75896 -3.88418 10845 ft 339 kts 302°
2026-05-09 10:21 53.77221 -3.91611 10727 ft 324 kts 302°
2026-05-09 10:22 53.78487 -3.94662 10589 ft 311 kts 302°
2026-05-09 10:22 53.79677 -3.97513 10411 ft 290 kts 301°
2026-05-09 10:22 53.80785 -4.00288 9907 ft 281 kts 300°
2026-05-09 10:22 53.81864 -4.03066 9245 ft 277 kts 300°
2026-05-09 10:23 53.82889 -4.05754 8576 ft 274 kts 300°
2026-05-09 10:23 53.84029 -4.08325 7872 ft 274 kts 317°
2026-05-09 10:23 53.85649 -4.10005 7213 ft 273 kts 333°
2026-05-09 10:23 53.87365 -4.11364 6547 ft 271 kts 335°
2026-05-09 10:24 53.89065 -4.12706 5880 ft 268 kts 335°
2026-05-09 10:24 53.90740 -4.14046 5209 ft 265 kts 335°
2026-05-09 10:24 53.92375 -4.15383 4816 ft 251 kts 335°
2026-05-09 10:24 53.93884 -4.16628 4580 ft 234 kts 335°
2026-05-09 10:25 53.95332 -4.17832 4274 ft 230 kts 334°
2026-05-09 10:25 53.96761 -4.19028 3941 ft 228 kts 334°
2026-05-09 10:25 53.98177 -4.20228 3624 ft 226 kts 334°
2026-05-09 10:25 53.99554 -4.21416 3297 ft 223 kts 335°
2026-05-09 10:26 54.00907 -4.22644 3076 ft 218 kts 335°
2026-05-09 10:26 54.02241 -4.23875 2992 ft 216 kts 334°
2026-05-09 10:26 54.03509 -4.25046 2999 ft 202 kts 334°
2026-05-09 10:26 54.04743 -4.26175 2994 ft 198 kts 334°
2026-05-09 10:27 54.05929 -4.27250 2870 ft 189 kts 336°
2026-05-09 10:27 54.07058 -4.28300 2746 ft 181 kts 333°
2026-05-09 10:27 54.08107 -4.29438 2560 ft 180 kts 316°
2026-05-09 10:27 54.08708 -4.31323 2299 ft 185 kts 294°
2026-05-09 10:28 54.09077 -4.33436 2096 ft 187 kts 291°
2026-05-09 10:28 54.09390 -4.35580 1999 ft 186 kts 289°
2026-05-09 10:28 54.09694 -4.37730 1999 ft 187 kts 289°
2026-05-09 10:28 54.10004 -4.39878 1997 ft 188 kts 289°
2026-05-09 10:29 54.10308 -4.41984 1995 ft 176 kts 289°
2026-05-09 10:29 54.10554 -4.43997 1987 ft 174 kts 276°
2026-05-09 10:29 54.10369 -4.46032 1850 ft 174 kts 262°
2026-05-09 10:29 54.10117 -4.48038 1640 ft 172 kts 262°
2026-05-09 10:30 54.09878 -4.49937 1446 ft 156 kts 263°
2026-05-09 10:30 54.09658 -4.51705 1227 ft 150 kts 264°
2026-05-09 10:30 54.09445 -4.53416 1018 ft 146 kts 264°
2026-05-09 10:30 54.09235 -4.55112 811 ft 146 kts 264°
2026-05-09 10:31 54.09025 -4.56799 610 ft 146 kts 263°
2026-05-09 10:31 54.08817 -4.58479 413 ft 145 kts 263°
2026-05-09 10:31 54.08596 -4.60156 195 ft 144 kts 263°
2026-05-09 10:31 54.08402 -4.61790 44 ft 130 kts 259°
2026-05-09 10:32 54.08278 -4.62852 45 ft 48 kts 258°
2026-05-09 10:32 54.08221 -4.63226 40 ft 17 kts 256°
2026-05-09 10:32 54.08287 -4.63338 42 ft 13 kts 344°
2026-05-09 10:32 54.08350 -4.63365 43 ft 8 kts 347°
2026-05-09 10:33 54.08412 -4.63388 43 ft 10 kts 352°
2026-05-09 10:33 54.08477 -4.63355 45 ft 10 kts 27°
2026-05-09 10:33 54.08536 -4.63353 46 ft 9 kts 318°
2026-05-09 10:33 54.08575 -4.63346 44 ft 4 kts 35°
2026-05-09 10:34 54.08581 -4.63332 44 ft 1 kts 51°
2026-05-09 10:34 54.08589 -4.63318 46 ft 0 kts 46°